This is the latest recevied weather packets stored in our database for station/object N2ZVN. If no packets are shown the sender has not sent any weather packets the latest 1 day(s).
| Time | Temp. | Humidity | Pressure | Rain* | Wind** | Luminosity | Snow |
|---|---|---|---|---|---|---|---|
| 1777978232 | 17.78° C | 63% | 1001.3 hPa | 0 mm | 1.34 m/s, 243° | 32 W/m² | - |
| 1777977929 | 17.78° C | 65% | 1001.5 hPa | 0 mm | 0.45 m/s, 239° | 31 W/m² | - |
| 1777977627 | 17.78° C | 65% | 1001.5 hPa | 0 mm | 0.89 m/s, 231° | 23 W/m² | - |
| 1777977323 | 17.78° C | 65% | 1001.3 hPa | 0 mm | 0.89 m/s, 240° | 18 W/m² | - |
| 1777977021 | 16.67° C | 68% | 1001.2 hPa | 0 mm | 1.34 m/s, 238° | 15 W/m² | - |
| 1777976718 | 16.67° C | 69% | 1001.3 hPa | 0 mm | 0.89 m/s, 260° | 10 W/m² | - |
| 1777976415 | 16.67° C | 70% | 1001.2 hPa | 0 mm | 0.45 m/s, 232° | 7 W/m² | - |
| 1777976114 | 16.11° C | 71% | 1001.1 hPa | 0 mm | 0.45 m/s, 211° | 5 W/m² | - |
| 1777975809 | 15.56° C | 72% | 1001.2 hPa | 0 mm | 1.34 m/s, 223° | 3 W/m² | - |
| 1777975507 | 15.56° C | 74% | 1001 hPa | 0 mm | 0.89 m/s, 227° | 2 W/m² | - |
| 1777975203 | 15.56° C | 75% | 1001 hPa | 0 mm | 0.89 m/s, 222° | 1 W/m² | - |
| 1777974900 | 15.56° C | 76% | 1001.1 hPa | 0 mm | 0.45 m/s, 222° | 1 W/m² | - |
| 1777974596 | 15.56° C | 76% | 1001.3 hPa | 0 mm | 0.45 m/s, 225° | 0 W/m² | - |
| 1777974293 | 15° C | 77% | 1001 hPa | 0 mm | 0.89 m/s, 222° | 0 W/m² | - |
| 1777973989 | 15° C | 78% | 1000.9 hPa | 0 mm | 0.89 m/s, 222° | 0 W/m² | - |
| 1777973686 | 15° C | 78% | 1000.9 hPa | 0 mm | 0.89 m/s, 222° | 0 W/m² | - |
| 1777973383 | 15° C | 78% | 1000.9 hPa | 0 mm | 0.89 m/s, 221° | 0 W/m² | - |
| 1777973080 | 15.56° C | 78% | 1001 hPa | 0 mm | 0.89 m/s, 222° | 0 W/m² | - |
| 1777972778 | 15.56° C | 78% | 1001 hPa | 0 mm | 0.89 m/s, 218° | 0 W/m² | - |
| 1777972475 | 15° C | 78% | 1000.9 hPa | 0 mm | 0.89 m/s, 222° | 0 W/m² | - |
| 1777972173 | 15° C | 79% | 1001 hPa | 0 mm | 0.45 m/s, 224° | 0 W/m² | - |
| 1777971871 | 15° C | 80% | 1001.2 hPa | 0 mm | 0.89 m/s, 228° | 0 W/m² | - |
| 1777971568 | 15° C | 80% | 1001.3 hPa | 0 mm | 0.89 m/s, 235° | 0 W/m² | - |
| 1777971266 | 15° C | 80% | 1001.1 hPa | 0 mm | 0.89 m/s, 227° | 0 W/m² | - |
| 1777970964 | 15° C | 80% | 1001.5 hPa | 0 mm | 1.34 m/s, 201° | 0 W/m² | - |
* Rain latest hour (hover to see other rain measurements)
** Current wind speed in m/s (hover to see current wind gust speed)